TimeEDT,TemperatureF,Dew PointF,Humidity,Sea Level PressureIn,VisibilityMPH,Wind Direction,Wind SpeedMPH,Gust SpeedMPH,PrecipitationIn,Events,Conditions,WindDirDegrees,DateUTC
12:54 AM,64.9,50.0,58,30.29,10.0,ESE,3.5,-,N/A,,Clear,120,2011-10-08 04:54:00
2:54 AM,61.0,48.9,64,30.29,10.0,ESE,3.5,-,N/A,,Clear,110,2011-10-08 06:54:00
3:54 AM,57.0,50.0,77,30.29,10.0,East,3.5,-,N/A,,Clear,90,2011-10-08 07:54:00
4:54 AM,59.0,48.9,69,30.30,10.0,Calm,Calm,-,N/A,,Clear,0,2011-10-08 08:54:00
5:54 AM,54.0,48.9,83,30.31,10.0,Calm,Calm,-,N/A,,Clear,0,2011-10-08 09:54:00
6:54 AM,52.0,48.0,86,30.33,10.0,Calm,Calm,-,N/A,,Clear,0,2011-10-08 10:54:00
7:54 AM,53.1,48.0,83,30.34,10.0,East,4.6,-,N/A,,Clear,100,2011-10-08 11:54:00
8:54 AM,57.9,52.0,81,30.36,10.0,Calm,Calm,-,N/A,,Clear,0,2011-10-08 12:54:00
9:54 AM,64.0,54.0,70,30.37,10.0,Calm,Calm,-,N/A,,Clear,0,2011-10-08 13:54:00
10:54 AM,72.0,57.0,59,30.37,10.0,SSE,4.6,-,N/A,,Clear,160,2011-10-08 14:54:00
11:54 AM,78.1,55.9,46,30.35,10.0,SW,6.9,-,N/A,,Clear,220,2011-10-08 15:54:00
12:54 PM,81.0,55.9,42,30.35,10.0,SSW,8.1,16.1,N/A,,Clear,210,2011-10-08 16:54:00
1:54 PM,82.0,55.0,39,30.33,10.0,SSW,9.2,-,N/A,,Clear,210,2011-10-08 17:54:00
2:54 PM,82.9,55.0,38,30.30,10.0,SSW,8.1,17.3,N/A,,Clear,200,2011-10-08 18:54:00
3:54 PM,82.9,53.1,36,30.29,10.0,South,8.1,-,N/A,,Clear,170,2011-10-08 19:54:00
4:54 PM,82.9,53.1,36,30.28,10.0,South,6.9,-,N/A,,Clear,190,2011-10-08 20:54:00
5:54 PM,82.0,53.1,37,30.28,10.0,SSW,4.6,-,N/A,,Clear,210,2011-10-08 21:54:00
6:54 PM,79.0,52.0,39,30.29,10.0,SSW,3.5,-,N/A,,Clear,200,2011-10-08 22:54:00
7:54 PM,69.1,55.9,63,30.30,10.0,Calm,Calm,-,N/A,,Clear,0,2011-10-08 23:54:00
8:54 PM,66.9,55.0,66,30.30,10.0,Calm,Calm,-,N/A,,Clear,0,2011-10-09 00:54:00
9:54 PM,64.0,54.0,70,30.31,10.0,Calm,Calm,-,N/A,,Clear,0,2011-10-09 01:54:00
10:54 PM,63.0,54.0,72,30.31,10.0,Calm,Calm,-,N/A,,Clear,0,2011-10-09 02:54:00
11:54 PM,64.0,54.0,70,30.30,10.0,Calm,Calm,-,N/A,,Clear,0,2011-10-09 03:54:00